Satellite: HORYU-2
Catalog number: 38340
Epoch time: 12186.25201215
Element set: 0047
Inclination: 098.1748 deg
RA of node: 126.0181 deg
Eccentricity: 0.0011820
Arg of perigee: 278.5388 deg
Mean anomaly: 081.4492 deg
Mean motion: 14.70012326 rev/day
Decay rate: 9.35e-06 rev/day^2
Epoch rev: 00698
Checksum: 280
/EX
1
0